Temperature
-2 -2 -2 -1 -1 -1 -1 -0 -0 0 0 1 1 1 1 1 2 2 2 2 2 3 3 3 4 4 4 4 4 4 4 5 4 4 4 4 4 4 4 5 5 5 5
-2 -2 -2 -2 -2 -2 -1 -1 -1 -0 0 0 0 0 1 1 1 1 1 2 2 2 2 2 3 3 3 3 4 4 4 4 4 4 4 4 4 4 4 4 4 4 4
-3 -3 -3 -3 -2 -2 -2 -1 -1 -1 -0 -0 -0 -0 0 0 0 1 1 1 1 2 2 2 2 2 3 3 3 3 3 3 3 3 3 3 3 3 3 3 3 3 3
-3 -3 -3 -3 -3 -3 -3 -2 -2 -1 -1 -1 -1 -0 -0 -0 0 0 0 1 1 1 1 2 2 2 2 2 2 3 3 3 3 3 3 3 3 3 3 3 3 3 3
-4 -4 -4 -3 -3 -3 -3 -3 -2 -2 -2 -1 -1 -1 -1 -1 -0 -0 0 0 0 1 1 1 1 1 1 2 2 2 2 2 2 2 2 2 2 2 2 2 2 2 2
-4 -4 -4 -4 -4 -4 -4 -3 -3 -2 -2 -2 -2 -1 -1 -1 -1 -1 -0 -0 -0 0 0 0 1 1 1 1 1 1 2 2 2 2 2 2 2 2 2 1 1 1 1
-5 -5 -5 -5 -5 -4 -4 -4 -4 -3 -3 -3 -2 -2 -2 -1 -1 -1 -1 -1 -0 -0 -0 -0 0 0 1 1 1 1 1 1 1 2 2 2 2 2 1 1 1 1 1
-5 -5 -5 -5 -5 -5 -5 -4 -4 -4 -4 -3 -3 -2 -2 -2 -2 -2 -1 -1 -1 -1 -1 -1 -0 -0 -0 0 0 0 0 1 1 1 1 1 1 1 1 1 1 1 0
-6 -6 -6 -6 -5 -5 -5 -5 -5 -5 -4 -4 -4 -3 -3 -2 -2 -2 -2 -2 -2 -2 -1 -1 -1 -1 -1 -0 -0 -0 -0 0 0 1 1 1 1 1 1 0 0 -0 -0
-6 -6 -6 -6 -6 -6 -6 -5 -5 -5 -5 -5 -4 -4 -3 -3 -3 -3 -3 -3 -3 -2 -2 -2 -2 -1 -1 -1 -1 -1 -1 -0 -0 -0 -0 0 0 0 -0 -0 -0 -0 -1
-7 -7 -7 -6 -6 -6 -6 -6 -6 -6 -5 -5 -5 -4 -4 -4 -4 -3 -3 -3 -3 -3 -3 -3 -2 -2 -2 -1 -1 -1 -1 -1 -1 -1 -1 -1 -1 -1 -1 -1 -1 -1 -1
-7 -7 -7 -7 -7 -7 -6 -6 -6 -6 -6 -6 -6 -5 -5 -5 -5 -4 -4 -4 -4 -4 -4 -3 -3 -2 -2 -2 -2 -2 -2 -2 -2 -2 -2 -2 -1 -1 -1 -1 -1 -1 -1
-8 -8 -8 -7 -7 -7 -7 -7 -7 -7 -7 -7 -6 -6 -6 -6 -5 -5 -5 -5 -4 -4 -4 -4 -3 -3 -3 -3 -3 -2 -2 -2 -2 -2 -2 -2 -2 -2 -2 -2 -2 -2 -2
-8 -8 -8 -8 -8 -8 -7 -7 -7 -8 -7 -7 -7 -7 -6 -6 -6 -6 -5 -5 -5 -5 -5 -4 -4 -4 -4 -4 -3 -3 -3 -3 -3 -3 -3 -3 -3 -3 -3 -3 -3 -3 -3
-9 -9 -9 -9 -9 -8 -8 -8 -8 -8 -8 -8 -7 -7 -7 -7 -6 -6 -6 -6 -5 -5 -5 -4 -4 -4 -4 -4 -4 -4 -4 -4 -4 -3 -4 -3 -3 -3 -3 -3 -3 -3 -3
-9 -9 -9 -9 -9 -9 -9 -8 -8 -8 -8 -8 -8 -8 -7 -7 -7 -6 -6 -6 -6 -5 -5 -5 -5 -5 -5 -5 -5 -5 -5 -5 -4 -4 -4 -4 -4 -4 -4 -4 -4 -4 -4
-10 -10 -10 -10 -10 -10 -9 -9 -9 -8 -8 -8 -8 -8 -8 -7 -7 -7 -7 -6 -6 -6 -6 -6 -6 -6 -5 -5 -5 -5 -5 -5 -5 -5 -5 -5 -5 -5 -5 -5 -5 -5 -5
-10 -10 -10 -10 -10 -10 -10 -10 -9 -9 -9 -8 -8 -8 -8 -8 -7 -7 -7 -7 -7 -6 -6 -6 -6 -6 -6 -6 -6 -6 -6 -6 -6 -6 -6 -6 -6 -6 -6 -6 -6 -6 -6
-11 -11 -10 -10 -10 -10 -10 -10 -10 -10 -9 -9 -9 -9 -8 -8 -8 -8 -8 -8 -7 -7 -7 -7 -7 -7 -7 -7 -7 -7 -7 -7 -7 -7 -7 -7 -7 -7 -7 -7 -7 -7 -7
-11 -11 -11 -11 -11 -11 -11 -11 -10 -10 -10 -10 -10 -9 -9 -9 -9 -9 -8 -8 -8 -8 -8 -8 -8 -7 -7 -7 -7 -7 -7 -7 -7 -7 -8 -7 -7 -7 -7 -7 -7 -7 -7
-12 -11 -11 -11 -11 -11 -11 -11 -11 -11 -10 -10 -10 -10 -10 -10 -9 -9 -9 -9 -9 -9 -8 -8 -8 -8 -8 -8 -8 -8 -8 -8 -8 -8 -8 -8 -8 -8 -8 -8 -8 -8 -8
-12 -12 -12 -12 -12 -12 -11 -11 -11 -11 -11 -11 -11 -10 -10 -10 -10 -10 -10 -9 -9 -9 -9 -9 -9 -9 -9 -9 -8 -8 -8 -8 -8 -8 -8 -8 -9 -9 -9 -9 -8 -8 -9
-12 -12 -12 -12 -12 -12 -12 -12 -11 -11 -11 -11 -11 -11 -11 -11 -10 -10 -10 -10 -10 -9 -9 -9 -9 -9 -9 -9 -9 -9 -9 -9 -9 -9 -9 -9 -9 -9 -9 -9 -9 -9 -9
-13 -13 -12 -12 -12 -12 -12 -12 -12 -12 -12 -12 -11 -11 -11 -11 -11 -11 -11 -10 -10 -10 -10 -10 -10 -9 -9 -9 -9 -9 -9 -9 -9 -9 -9 -9 -9 -9 -9 -9 -9 -9 -9
-13 -13 -13 -13 -13 -13 -13 -13 -12 -12 -12 -12 -12 -12 -12 -11 -11 -11 -11 -11 -11 -10 -10 -10 -10 -10 -10 -10 -10 -10 -10 -10 -10 -10 -10 -10 -10 -10 -10 -10 -10 -10 -10
-13 -13 -13 -13 -13 -13 -13 -13 -13 -13 -13 -12 -12 -12 -12 -12 -12 -12 -11 -11 -11 -11 -11 -11 -11 -11 -11 -10 -10 -10 -10 -10 -10 -10 -10 -10 -10 -10 -10 -10 -10 -10 -10
Wind_Speed
9 9 9 8 8 8 8 8 8 8 8 8 7 7 7 7 7 7 7 7 8 7 7 7 7 7 6 5 5 6 6 6 6 4 3 3 4 4 3 3 3 4 4
9 9 9 9 8 8 9 9 8 8 8 8 7 7 7 7 7 8 8 8 8 8 8 8 8 6 7 6 5 6 6 6 7 6 4 4 4 4 3 3 3 3 3
9 9 9 9 9 9 9 9 9 8 8 7 7 7 7 7 7 8 8 8 9 9 8 8 8 8 8 6 6 6 5 6 6 6 5 4 3 3 3 2 2 2 2
9 9 9 10 10 9 9 9 9 8 8 8 7 7 7 6 7 7 7 7 7 8 8 8 8 9 8 8 7 6 5 6 6 6 5 4 3 3 3 3 3 2 2
9 9 9 10 10 9 9 9 9 8 8 8 7 7 6 5 5 6 6 7 7 7 7 7 8 8 9 8 6 6 6 5 6 6 6 5 4 4 5 3 3 3 2
9 9 9 9 9 9 9 9 9 8 8 7 7 6 5 4 5 6 5 6 6 6 7 7 7 7 8 9 8 8 8 8 7 7 7 7 7 6 5 4 3 3 3
9 9 9 9 9 9 9 9 8 8 8 7 7 6 5 5 4 5 5 5 5 5 6 6 5 5 6 6 5 6 7 8 8 8 8 8 7 7 7 6 5 4 4
9 9 9 9 10 9 9 9 9 8 7 6 6 6 5 4 4 4 4 4 3 4 4 5 5 5 5 5 5 5 5 5 6 6 7 7 6 6 7 7 6 4 2
9 9 9 9 10 9 9 9 8 8 7 6 6 5 4 4 3 3 3 3 3 3 3 4 5 5 5 5 5 5 5 4 3 5 5 5 5 6 6 5 5 4 3
9 9 9 9 9 9 9 9 8 7 7 6 6 5 4 4 3 3 3 2 2 3 3 3 4 5 5 6 6 6 6 5 4 3 3 3 4 4 6 6 6 5 3
9 9 9 9 9 9 9 8 7 7 7 6 5 5 4 4 4 3 3 2 2 2 3 2 2 3 4 5 5 5 6 4 4 3 3 3 3 3 3 3 3 4 4
9 9 9 9 8 7 8 7 7 6 6 6 5 5 4 4 4 4 4 4 4 3 3 2 2 2 3 4 4 4 4 3 3 3 2 2 2 2 2 1 1 0 1
9 9 8 8 7 7 7 7 6 5 4 5 5 5 4 4 4 5 5 5 5 3 2 2 2 1 1 0 1 2 2 2 3 2 2 2 1 2 1 1 1 2 1
9 9 8 7 7 7 6 5 5 5 5 5 5 5 5 4 4 4 4 3 4 3 2 1 2 2 2 2 1 1 1 1 2 2 2 1 1 1 1 1 1 1 0
8 8 7 6 6 6 6 5 6 5 5 5 5 4 4 4 5 6 4 3 3 2 1 1 1 1 1 1 1 1 1 1 1 1 2 1 1 1 0 0 1 0 1
7 7 6 6 5 5 5 6 7 7 8 8 8 7 6 7 8 7 6 5 5 3 2 1 1 1 1 1 1 1 1 1 1 1 1 1 1 1 0 0 0 1 1
7 7 6 6 5 5 5 5 6 7 8 7 8 8 8 8 8 7 6 5 4 3 1 1 1 1 1 1 1 0 1 1 1 1 1 1 1 1 1 0 0 0 1
8 7 7 6 5 5 5 5 5 5 6 6 7 8 9 8 8 7 6 5 3 3 1 1 1 1 1 1 1 1 1 1 1 1 1 1 1 1 1 1 1 1 1
7 6 6 6 5 5 5 5 5 5 5 5 5 6 8 8 7 7 6 3 2 2 2 1 1 1 1 1 1 1 1 1 1 0 0 0 1 1 1 1 1 1 1
6 8 8 6 5 5 4 4 4 5 5 4 4 5 6 5 4 5 4 3 3 2 2 2 2 1 1 1 1 0 0 0 0 0 0 0 0 1 1 1 1 1 1
6 7 8 6 5 5 5 5 4 4 4 4 4 5 7 4 4 4 4 4 3 3 3 2 2 2 1 1 1 0 0 1 1 1 1 1 1 1 1 1 1 1 1
6 6 5 5 5 5 5 5 4 4 5 5 4 5 6 4 3 3 3 4 3 3 3 2 2 2 2 1 1 1 1 1 1 1 1 1 1 1 1 1 1 2 2
5 6 6 5 5 6 5 5 5 5 5 4 4 4 4 3 3 4 4 4 3 3 3 2 2 2 2 2 2 2 2 2 2 2 2 2 2 2 2 2 3 3 3
5 5 5 5 5 4 5 5 4 4 4 4 4 4 4 4 4 4 4 4 4 3 3 3 2 2 3 3 3 3 3 4 4 4 4 3 3 3 3 3 3 3 3
5 5 5 5 5 4 4 4 4 4 4 4 4 4 4 4 4 4 4 4 4 3 4 4 3 3 4 4 4 4 5 6 5 5 5 4 4 4 4 4 4 4 4
5 5 5 4 4 4 4 4 4 4 4 4 4 4 4 4 4 4 4 4 4 3 4 4 4 5 5 5 6 6 6 6 6 5 5 4 4 4 4 3 4 4 5
Wind_Direction
330 326 320 319 317 313 310 303 298 295 290 287 279 272 264 254 246 240 240 239 235 235 233 232 234 234 224 220 218 217 221 220 224 231 228 222 219 220 226 222 232 229 221
326 322 321 319 317 315 312 307 302 296 289 287 279 268 262 253 247 241 240 239 233 233 232 230 233 232 227 220 218 217 217 215 215 222 228 221 224 216 218 219 239 238 229
325 323 322 322 320 316 312 308 306 301 294 290 283 269 263 253 247 243 239 238 236 234 232 229 229 226 227 219 217 217 216 213 213 213 219 218 221 210 210 222 236 252 246
324 321 320 322 319 315 313 310 308 305 295 286 283 272 265 258 250 243 237 237 239 239 238 234 232 225 227 221 217 216 213 213 210 208 208 206 207 206 202 209 228 246 259
321 320 320 321 320 317 316 316 314 310 305 294 288 278 269 261 255 251 239 237 237 239 239 238 236 231 231 229 218 212 208 212 211 207 206 206 204 196 207 213 228 242 260
319 318 320 321 321 320 319 318 316 314 310 305 296 284 272 265 269 267 256 240 238 238 239 240 236 229 228 227 221 220 217 214 214 213 213 212 214 212 209 210 216 228 250
316 317 321 322 321 321 320 319 317 315 311 306 300 289 276 276 278 273 273 261 246 243 239 234 235 229 220 218 212 218 228 231 228 221 216 218 217 214 210 210 217 225 242
316 317 320 321 320 322 322 321 318 315 312 309 307 297 284 285 290 286 287 285 272 260 249 236 227 228 219 213 212 220 229 233 232 228 224 224 224 220 213 214 213 224 252
317 316 317 318 317 319 319 318 317 315 315 315 308 305 296 289 285 291 304 294 286 279 266 246 232 228 213 208 208 214 222 230 219 210 218 223 217 214 210 196 192 195 231
315 313 313 313 312 313 314 315 316 316 314 316 311 308 305 300 302 302 308 296 298 294 283 260 240 234 224 218 215 212 219 225 214 209 207 213 212 203 204 207 200 200 220
314 312 311 312 312 312 314 316 319 321 321 322 323 321 319 316 316 313 315 309 297 295 290 273 247 232 237 233 231 224 214 209 207 205 205 207 205 203 209 219 214 208 214
315 312 312 314 316 315 317 319 320 320 322 328 331 332 335 336 340 338 334 323 317 294 289 289 271 229 241 237 230 204 185 187 192 190 189 200 208 210 209 201 169 208 244
315 315 315 317 318 318 318 318 319 320 322 326 330 331 334 338 342 348 342 336 329 317 303 317 332 35 39 152 144 149 162 174 174 178 190 207 212 195 177 145 88 74 44
314 317 318 320 323 326 324 321 320 320 321 324 327 328 330 332 335 336 335 338 341 334 333 350 2 49 60 45 42 70 90 141 160 172 179 174 161 164 181 177 179 149 55
317 317 318 321 322 327 329 327 322 318 318 317 318 318 322 324 328 333 330 328 326 319 330 330 347 29 55 54 66 67 68 90 105 136 144 147 148 143 177 162 165 202 236
321 322 322 323 323 325 328 331 337 335 337 337 338 335 331 335 338 341 345 346 348 350 354 10 21 25 19 50 74 73 65 66 80 106 130 141 147 143 136 97 154 171 195
321 320 320 321 321 322 325 327 329 338 344 345 348 348 346 347 350 349 352 360 7 15 19 28 26 14 15 34 43 61 55 61 73 94 111 129 133 133 145 163 161 169 204
322 319 319 318 318 317 320 321 321 325 330 336 343 348 351 352 353 356 0 10 14 24 16 12 13 7 3 12 32 50 65 70 80 84 92 117 146 151 166 190 210 215 227
322 321 321 319 317 318 320 320 322 323 321 324 332 339 347 350 357 3 9 12 11 5 359 357 355 348 345 0 22 43 61 65 63 84 123 153 174 171 195 227 236 229 254
321 324 326 321 321 323 323 321 321 321 321 324 330 334 338 345 353 357 2 359 356 350 346 343 341 337 338 352 356 8 31 26 19 255 238 225 210 197 209 227 239 245 254
318 322 328 324 324 323 321 320 318 318 319 319 323 331 338 339 342 347 349 348 343 336 332 333 334 337 337 334 317 314 299 286 287 277 268 260 244 239 245 245 246 250 256
314 316 321 321 322 322 322 320 319 318 319 319 321 328 339 343 338 337 336 333 332 332 328 325 324 325 325 309 288 276 269 270 270 259 250 240 235 239 245 245 248 251 252
311 314 319 320 319 321 323 323 323 322 319 317 318 324 331 335 334 331 329 328 331 333 326 318 320 325 313 303 289 271 263 260 258 246 243 241 238 236 238 239 238 242 244
313 314 315 315 316 316 316 318 320 321 321 320 319 322 325 326 326 327 327 328 331 330 325 320 313 316 317 310 301 290 276 269 261 244 236 236 240 241 239 240 245 246 247
314 312 311 310 311 311 311 312 313 315 317 318 320 324 325 325 324 323 323 324 327 328 330 324 314 311 311 308 302 295 295 290 276 259 245 236 240 242 242 243 246 251 250
310 308 308 306 305 305 304 305 308 312 313 313 313 313 314 316 319 322 322 320 320 319 319 317 317 314 307 302 299 298 297 294 282 270 257 241 241 242 239 242 245 247 252
Height
1499 1496 1494 1491 1489 1487 1484 1482 1481 1479 1478 1477 1476 1475 1475 1475 1475 1476 1476 1477 1477 1478 1479 1480 1481 1483 1484 1486 1487 1489 1491 1493 1494 1495 1498 1499 1500 1502 1503 1503 1504 1505 1506
1495 1492 1490 1487 1485 1482 1480 1478 1476 1475 1473 1472 1471 1470 1469 1469 1470 1470 1470 1471 1471 1472 1473 1474 1476 1477 1479 1480 1482 1483 1485 1487 1489 1490 1492 1494 1495 1497 1498 1499 1500 1501 1502
1492 1489 1486 1484 1481 1478 1476 1473 1471 1470 1468 1467 1466 1465 1464 1464 1464 1464 1464 1465 1466 1466 1467 1468 1470 1471 1473 1474 1476 1477 1479 1481 1483 1485 1486 1489 1490 1492 1493 1495 1496 1496 1497
1489 1486 1483 1480 1477 1474 1472 1469 1467 1465 1463 1462 1460 1459 1459 1458 1458 1458 1459 1459 1460 1461 1462 1463 1464 1465 1466 1468 1470 1472 1474 1476 1478 1480 1481 1483 1485 1487 1488 1489 1491 1492 1492
1486 1483 1480 1477 1474 1471 1468 1465 1463 1461 1459 1457 1455 1454 1454 1453 1453 1453 1454 1454 1455 1455 1456 1457 1458 1459 1460 1462 1464 1466 1468 1470 1472 1474 1476 1478 1479 1481 1483 1484 1486 1487 1487
1483 1480 1477 1474 1471 1468 1465 1462 1459 1456 1454 1452 1451 1450 1449 1449 1448 1448 1449 1449 1449 1449 1450 1450 1452 1453 1454 1456 1458 1460 1463 1465 1466 1468 1470 1472 1473 1476 1478 1480 1481 1482 1483
1481 1478 1474 1471 1468 1465 1462 1459 1456 1453 1450 1448 1446 1445 1445 1444 1444 1444 1444 1444 1443 1443 1444 1445 1446 1447 1448 1450 1452 1454 1457 1459 1461 1463 1464 1466 1468 1470 1473 1474 1476 1477 1477
1478 1475 1472 1468 1465 1462 1459 1456 1453 1450 1447 1444 1443 1442 1441 1440 1440 1440 1440 1439 1439 1439 1439 1440 1440 1441 1443 1445 1447 1449 1450 1453 1455 1457 1459 1461 1463 1465 1467 1469 1470 1472 1473
1476 1472 1469 1466 1463 1459 1456 1453 1450 1447 1444 1442 1441 1439 1438 1437 1437 1437 1436 1435 1435 1435 1435 1436 1436 1437 1439 1440 1442 1443 1445 1447 1449 1451 1454 1455 1458 1460 1462 1464 1465 1467 1468
1473 1470 1467 1464 1461 1457 1454 1451 1448 1445 1443 1441 1439 1437 1436 1435 1434 1434 1433 1432 1431 1431 1431 1432 1432 1433 1434 1436 1437 1438 1439 1441 1444 1446 1448 1450 1452 1454 1457 1459 1460 1461 1463
1470 1467 1464 1461 1458 1455 1452 1449 1447 1444 1441 1439 1437 1435 1434 1433 1432 1431 1430 1430 1429 1429 1428 1428 1428 1429 1430 1431 1433 1434 1435 1437 1439 1441 1443 1445 1447 1449 1451 1453 1455 1457 1458
1467 1464 1461 1459 1456 1453 1450 1447 1445 1442 1440 1437 1435 1433 1432 1431 1430 1428 1428 1427 1427 1426 1425 1425 1425 1425 1426 1427 1429 1430 1431 1433 1434 1436 1438 1440 1442 1444 1446 1448 1450 1452 1454
1464 1461 1459 1456 1453 1451 1448 1446 1443 1441 1439 1437 1434 1432 1430 1429 1428 1427 1426 1425 1424 1423 1423 1423 1423 1422 1423 1423 1425 1426 1427 1429 1430 1432 1434 1436 1438 1440 1442 1444 1445 1447 1449
1462 1459 1456 1453 1451 1449 1447 1444 1442 1440 1438 1436 1434 1432 1430 1428 1427 1425 1424 1423 1422 1421 1421 1421 1421 1421 1421 1422 1422 1423 1424 1426 1427 1429 1431 1433 1435 1436 1438 1439 1441 1442 1444
1460 1457 1454 1452 1449 1447 1445 1443 1441 1439 1438 1436 1434 1432 1430 1427 1426 1425 1423 1422 1421 1421 1420 1420 1419 1419 1420 1420 1421 1422 1423 1424 1425 1427 1428 1429 1431 1433 1434 1436 1437 1438 1440
1457 1455 1453 1450 1448 1445 1443 1442 1440 1439 1437 1435 1433 1432 1429 1428 1425 1423 1422 1421 1420 1420 1419 1418 1418 1419 1419 1419 1420 1420 1421 1422 1423 1424 1426 1427 1428 1429 1431 1433 1434 1435 1436
1456 1454 1451 1449 1446 1444 1442 1440 1438 1437 1436 1434 1432 1430 1428 1426 1424 1422 1420 1419 1418 1418 1418 1417 1418 1418 1419 1419 1419 1420 1420 1421 1422 1422 1423 1424 1426 1427 1428 1430 1431 1432 1433
1455 1452 1450 1448 1446 1444 1442 1440 1438 1435 1433 1431 1430 1428 1426 1424 1422 1421 1419 1418 1417 1417 1417 1417 1417 1418 1418 1418 1418 1418 1419 1419 1420 1421 1422 1423 1424 1425 1426 1427 1428 1429 1430
1453 1451 1448 1446 1444 1442 1440 1439 1437 1435 1433 1430 1429 1427 1425 1423 1422 1420 1418 1417 1416 1416 1416 1417 1417 1417 1417 1418 1418 1418 1418 1418 1419 1420 1420 1421 1422 1423 1424 1425 1426 1427 1428
1451 1449 1447 1445 1443 1441 1439 1437 1436 1434 1432 1430 1428 1426 1424 1422 1421 1419 1418 1417 1416 1416 1416 1416 1416 1416 1417 1417 1417 1417 1417 1417 1418 1419 1419 1420 1420 1421 1422 1423 1423 1424 1425
1450 1447 1445 1443 1441 1439 1438 1436 1434 1432 1431 1429 1427 1426 1424 1422 1420 1419 1418 1417 1416 1416 1416 1415 1415 1415 1415 1416 1416 1416 1416 1417 1417 1418 1418 1418 1419 1420 1420 1421 1421 1422 1422
1448 1446 1444 1442 1440 1438 1436 1435 1433 1431 1429 1427 1426 1424 1423 1422 1420 1419 1418 1417 1416 1416 1415 1415 1414 1414 1414 1414 1415 1415 1415 1415 1416 1416 1417 1417 1417 1417 1418 1418 1419 1419 1420
1447 1444 1442 1440 1438 1437 1435 1433 1431 1430 1428 1426 1424 1423 1422 1420 1419 1418 1417 1416 1415 1415 1414 1414 1413 1413 1413 1413 1413 1414 1414 1414 1414 1415 1415 1415 1415 1415 1416 1416 1416 1417 1417
1445 1443 1441 1439 1437 1435 1433 1431 1430 1428 1426 1425 1423 1422 1420 1419 1418 1417 1416 1415 1415 1414 1413 1413 1412 1412 1412 1411 1412 1412 1412 1412 1412 1412 1413 1413 1413 1413 1413 1413 1414 1414 1414
1443 1441 1439 1437 1435 1433 1432 1430 1428 1427 1425 1424 1422 1421 1419 1418 1417 1416 1415 1414 1413 1413 1412 1411 1411 1410 1410 1410 1410 1410 1410 1410 1410 1410 1410 1410 1410 1410 1410 1410 1411 1411 1411
1441 1439 1437 1435 1433 1432 1430 1428 1427 1425 1424 1422 1421 1420 1418 1417 1416 1415 1413 1413 1412 1411 1411 1410 1409 1409 1408 1408 1408 1408 1408 1408 1407 1407 1407 1407 1407 1407 1407 1407 1407 1408 1408